AirNav   Duncan Aviation - Near you to keep you flying
 
 1014 users online  

73T Desoto Heliport
Desoto, Texas, USA

GOING TO DESOTO?


FAA INFORMATION EFFECTIVE 09 SEPTEMBER 2021

Location

FAA Identifier: 73T
Lat/Long: 32-37-53.9800N 096-51-18.8200W
32-37.899667N 096-51.313667W
32.6316611,-96.8552278
(estimated)
Elevation: 648.5 ft. / 198 m (estimated)
From city: 3 miles N of DESOTO, TX
Time zone: UTC -5 (UTC -6 during Standard Time)
Zip code: 75232

Heliport Operations

Heliport use: Open to the public
Activation date: 02/2015
Control tower: no
ARTCC: FORT WORTH CENTER
FSS: FORT WORTH FLIGHT SERVICE STATION
NOTAMs facility: FTW (NOTAM-D service available)
Attendance: MON-FRI 0900-1800
Wind indicator: lighted
Segmented circle: no
Beacon: white-green-yellow (heliport)
Operates sunset to sunrise.

Heliport Communications

CTAF: 122.9
WX ASOS at RBD (3 nm N): PHONE 214-330-5317
WX AWOS-3 at LNC (8 nm SE): 118.975 (972-227-0471)
WX AWOS-3 at 49T (9 nm N): 135.425 (214-670-1243)
WX AWOS-3P at GPM (10 nm NW): 118.475 (972-606-1433)
WX AWOS-3 at JWY (11 nm S): 119.575 (972-937-4747)
WX ASOS at GKY (12 nm W): 127.375 (817-557-0251)
WX ASOS at DAL (13 nm N): PHONE 214-353-1551
WX AWOS-3 at HQZ (18 nm NE): 118.175 (972-222-7631)
WX ASOS at DFW (18 nm NW): PHONE 972-615-2608

Nearby radio navigation aids

VOR radial/distance  VOR name  Freq  Var
CVEr165/15.7COWBOY VOR/DME116.2006E
TTTr141/17.0MAVERICK VOR/DME113.1006E
FUZr127/22.5RANGER VORTAC115.7006E

 
NDB name  Hdg/Dist  Freq  Var  ID
MESQUITE234/19.624803EPQF .--. --.- ..-.
TRAVIS250/31.626006EAVZ .- ...- --..

Heliport Services

Fuel available: 100LL JET-A
100LL:SELF-SERVE FUEL.
Parking: hangars and tiedowns
Airframe service: MAJOR
Powerplant service: MAJOR

Runway Information

Helipad H1

Dimensions: 54 x 54 ft. / 16 x 16 m
Surface: concrete, in good condition
Runway edge lights: PERI
PERIMETER LGTS WITH RECESSED LGTS SRNDG LNDG PADS. NON STD ALL GREEN.
Operational restrictions: INGRESS/EGRESS N &S.
Traffic pattern: leftleft
Markings: basic, in good condition

Heliport Ownership and Management from official FAA records

Ownership: Publicly-owned
Owner: CITY OF DESOTO
211 E. PLEASANT RUN RD
DESOTO, TX 75115
Phone 972-274-2489
Manager: KEN PYATT
150 E. DANIELDALE RD
DESOTO, TX 75115
Phone 214-379-6790

Heliport Operational Statistics

Aircraft based on the field: 6
Helicopters: 6
    

Additional Remarks

A52-H1 49 FT POWER POLE 1,529 FT NORTH; 15 FT RD, 500 FT NORTH; 42 FT BLDG., 270 FT NORTHEAST; 35 FT TREE 783 FT SOUTH; 33 FT TREES 85 FT WEST; 36 FT BUILDING 276 FT EAST.
A57-H1 APCH RATIO TO N 33:1; TO S 22:1; TO W 2:1; TO E 8:1.
INSIDE KRBD CLASS D SFC AREA, CTC DALLAS EXEC TWR 127.25.
FOR CD CTC REGIONAL APCH AT 972-615-2799.
1024 FT MSL (310 FT AGL) TWR, 310 DEG .73 MILE FM HELIPAD.

Instrument Procedures

There are no published instrument procedures at 73T.

Some nearby airports with instrument procedures:

KRBD - Dallas Executive Airport (3 nm N)
KLNC - Lancaster Regional Airport (8 nm SE)
KGPM - Grand Prairie Municipal Airport (10 nm NW)
KJWY - Mid-Way Regional Airport (11 nm S)
KGKY - Arlington Municipal Airport (12 nm W)
KDAL - Dallas Love Field Airport (13 nm N)
KHQZ - Mesquite Metro Airport (18 nm NE)
KDFW - Dallas-Fort Worth International Airport (18 nm NW)
 
Loc | Ops | Rwys | IFR | FBO | Links
Com | Nav | Svcs | Stats | Notes

City of Fort Worth
 
Aerial photo
No photo
 
Airport distance calculator
Flying to Desoto Heliport? Find the distance to fly.

From to 73T

Sunrise and sunset
Times for 19-Sep-2021
 Local
(UTC-5)
 Zulu
(UTC)
Morning civil twilight06:5011:50
Sunrise07:1512:15
Sunset19:2800:28
Evening civil twilight19:5200:52

Current date and time
Zulu (UTC)  19-Sep-2021 19:36:57
Local (UTC-5)  19-Sep-2021 14:36:57
 
METAR
KRBD 
3nm N 
191853Z 05005KT 10SM FEW110 33/19 A2992 RMK AO2 SLP122 T03330194
KLNC 
8nm SE 
191915Z AUTO 02003KT 10SM SCT048 SCT055 32/20 A2992 RMK AO2 T03220197
KGPM 
11nm NW 
191850Z 00000KT 10SM SKC 32/18 A2993
KJWY 
11nm S 
191915Z AUTO 06006KT 10SM BKN110 33/20 A2993 RMK AO2 T03260199
KGKY 
13nm W 
191853Z 03004KT 10SM CLR 34/21 A2992 RMK AO2 SLP120 T03440206 $
KDAL 
13nm N 
191853Z 00000KT 10SM SCT040 BKN060 32/20 A2992 RMK AO2 SLP123 MDT CU ALQDS T03170200
KHQZ 
18nm NE 
191850Z 36003KT 10SM BKN045 32/21 A2992
KDFW 
18nm NW 
191853Z 16004KT 10SM SCT043 SCT055 32/20 A2991 RMK AO2 SLP119 T03220200
TAF
KGKY 
13nm W 
191736Z 1918/2018 12004KT P6SM SCT035 FM201500 19012KT P6SM FEW035
KDAL 
13nm N 
191736Z 1918/2018 12004KT P6SM SCT035 FM201500 19012KT P6SM FEW035
KDFW 
18nm NW 
191736Z 1918/2024 12004KT P6SM SCT035 FM201500 19012KT P6SM FEW035
NOTAMs
Click for the latest NOTAMs
NOTAMs are issued by the DoD/FAA and will open in a separate window not controlled by AirNav.

 

 
 

FBO, Fuel Providers, and Aircraft Ground Support

  
 Business Name 
 
 Contact 
 
 Services / Description 
 
Fuel Prices
 
Comments
  
Sky Helicopters, Inc. 214-349-7000
no information available

If you are affiliated with Sky Helicopters, Inc. and would like to show here your services, contact info, web link, logo, and more, click here
100LL Jet A
SS $4.75 $4.58 
 Updated 21-Jan-2021
 
   write
SS=Self service
Update Fuel Prices
 

Would you like to see your business listed on this page?

 If your business provides an interesting product or service to pilots, flight crews, aircraft, or users of the Desoto Heliport, you should consider listing it here.  To start the listing process, click on the button below
 
Add a business
 

Other Pages about Desoto Heliport

Update a link
 
Copyright © AirNav, LLC. All rights reserved. Privacy Policy  Contact